DH9SB-6 Weather Reports


time (UTC)temp
F
wind
direction
speed
knots
gust
knots
rain 1hr
in
rain 24hr
in
rain mn
in
humidity
%
barometer
mb
20260503040723 50 0.0 0.0 0.00 0.00 0.00 78
20260503035747 50 0.0 0.0 0.00 0.00 0.00 78
20260503034723 50 0.0 0.0 0.00 0.00 0.00 77
20260503033747 50 0.0 0.0 0.00 0.00 0.00 77
20260503032723 50 0.0 0.0 0.00 0.00 0.00 77
20260503031746 50 0.0 0.0 0.00 0.00 0.00 76
20260503030723 50 0.0 0.0 0.00 0.00 0.00 76
20260503025747 50 0.0 0.0 0.00 0.00 0.00 76
20260503024723 50 0.0 0.0 0.00 0.00 0.00 76
20260503023753 50 0.0 0.0 0.00 0.00 0.00 75
20260503022724 50 0.0 0.0 0.00 0.00 0.00 75
20260503021751 51 0.0 0.0 0.00 0.00 0.00 74
20260503020724 51 0.0 0.0 0.00 0.00 0.00 75
20260503015748 51 0.0 0.0 0.00 0.00 0.00 74
20260503014727 51 0.0 0.0 0.00 0.00 0.00 74
20260503013747 51 0.0 0.0 0.00 0.00 0.00 73
20260503012725 52 0.0 0.0 0.00 0.00 0.00 72
20260503011747 52 0.0 0.0 0.00 0.00 0.00 72
20260503010722 53 0.0 0.0 0.00 0.00 0.00 72
20260503005750 53 0.0 0.0 0.00 0.00 0.00 72
20260503004729 53 0.0 0.9 0.00 0.00 0.00 73
20260503003747 53 0.0 0.0 0.00 0.00 0.00 72
20260503002723 53 0.0 0.0 0.00 0.00 0.00 71
20260503001747 53 0.0 0.0 0.00 0.00 0.00 71
20260503000723 54 0.0 0.0 0.00 0.00 0.00 70
20260502235747 54 0.0 0.0 0.00 0.00 0.00 69
20260502234722 55 0.0 0.0 0.00 0.00 0.00 64
20260502233747 55 0.0 0.0 0.00 0.00 0.00 64
20260502232723 55 0.0 0.0 0.00 0.00 0.00 64
20260502231835 55 0.0 0.0 0.00 0.00 0.00 63
20260502230725 56 0.0 0.0 0.00 0.00 0.00 63
20260502225747 56 0.0 0.0 0.00 0.00 0.00 62
20260502224811 56 0.0 0.0 0.00 0.00 0.00 62
20260502223747 57 0.0 0.0 0.00 0.00 0.00 61
20260502222723 57 0.0 0.0 0.00 0.00 0.00 61
20260502221748 57 0.0 0.0 0.00 0.00 0.00 60
20260502220724 58 0.0 0.0 0.00 0.00 0.00 60
20260502215747 58 0.0 0.0 0.00 0.00 0.00 60
20260502214723 58 0.0 0.0 0.00 0.00 0.00 59
20260502213259 59 0.0 0.0 0.00 0.00 0.00 57
20260502212235 59 0.0 0.0 0.00 0.00 0.00 56
20260502211305 60 0.0 0.0 0.00 0.00 0.00 56
20260502210236 60 0.0 0.0 0.00 0.00 0.00 55
20260502205259 60 0.0 0.0 0.00 0.00 0.00 54
20260502204235 61 0.0 0.0 0.00 0.00 0.00 53
20260502203347 61 0.0 0.0 0.00 0.00 0.00 52
20260502202236 62 0.0 0.0 0.00 0.00 0.00 52
20260502201302 63 0.0 0.0 0.00 0.00 0.00 51
20260502200324 63 0.0 0.0 0.00 0.00 0.00 50
20260502195305 64 0.0 0.0 0.00 0.00 0.00 43
20260502194241 64 0.0 0.0 0.00 0.00 0.00 43
20260502193300 65 0.0 0.0 0.00 0.00 0.00 42
20260502192235 65 0.0 0.0 0.00 0.00 0.00 42
20260502191259 66 0.0 0.0 0.00 0.00 0.00 41
20260502190235 67 0.0 0.0 0.00 0.00 0.00 40
20260502185259 68 0.0 0.0 0.00 0.00 0.00 40
20260502184237 68 0.0 0.0 0.00 0.00 0.00 40
20260502183300 69 0.0 0.0 0.00 0.00 0.00 40
20260502182236 71 0.0 0.0 0.00 0.00 0.00 38
20260502181302 72 0.0 0.0 0.00 0.00 0.00 35
20260502180238 73 0.0 0.0 0.00 0.00 0.00 28
20260502170236 77 0.0 0.0 0.00 0.00 0.00 23
20260502164323 79 0.0 0.0 0.00 0.00 0.00 22
20260502163300 79 0.0 0.0 0.00 0.00 0.00 22
20260502162236 78 0.0 0.0 0.00 0.00 0.00 22
20260502161259 78 0.0 0.0 0.00 0.00 0.00 21
20260502160235 79 0.0 0.0 0.00 0.00 0.00 22
20260502152235 84 0.0 0.0 0.00 0.00 0.00 20
20260502151259 85 0.0 0.0 0.00 0.00 0.00 20
20260502150236 85 0.0 0.0 0.00 0.00 0.00 17
20260502130237 79 0.0 0.0 0.00 0.00 0.00 23
20260502123300 79 0.0 0.0 0.00 0.00 0.00 25
20260502122235 79 0.0 0.0 0.00 0.00 0.00 26
20260502121304 79 0.0 0.0 0.00 0.00 0.00 25
20260502120236 80 0.0 0.0 0.00 0.00 0.00 27
20260502115259 80 0.0 0.0 0.00 0.00 0.00 29
20260502114236 79 0.0 0.0 0.00 0.00 0.00 29
20260502113300 79 0.0 0.0 0.00 0.00 0.00 30
20260502112236 79 0.0 0.0 0.00 0.00 0.00 30
20260502111300 77 0.0 0.0 0.00 0.00 0.00 30
20260502110236 78 0.0 0.0 0.00 0.00 0.00 31
20260502105347 76 0.0 0.0 0.00 0.00 0.00 30
20260502104236 76 0.0 0.0 0.00 0.00 0.00 30
20260502103303 75 0.0 0.0 0.00 0.00 0.00 32
20260502102239 74 0.0 0.0 0.00 0.00 0.00 32
20260502101300 73 0.0 0.0 0.00 0.00 0.00 32
20260502100240 73 0.0 0.0 0.00 0.00 0.00 32
20260502091300 73 0.0 0.0 0.00 0.00 0.00 33
20260502090236 73 0.0 0.0 0.00 0.00 0.00 34
20260502071300 66 0.0 0.0 0.00 0.00 0.00 43
20260502070237 62 0.0 0.0 0.00 0.00 0.00 52
20260502065301 59 0.0 0.0 0.00 0.00 0.00 54
20260502064236 58 0.0 0.9 0.00 0.00 0.00 54
20260502063300 57 0.0 0.0 0.00 0.00 0.00 56
20260502062237 56 0.0 0.9 0.00 0.00 0.00 59
20260502061259 55 0.0 0.0 0.00 0.00 0.00 59
20260502060236 54 0.0 0.0 0.00 0.00 0.00 63
20260502055301 52 0.0 0.0 0.00 0.00 0.00 67
20260502054236 52 0.0 0.0 0.00 0.00 0.00 68
20260502053300 50 0.0 0.0 0.00 0.00 0.00 71
20260502052237 49 0.0 0.0 0.00 0.00 0.00 71
20260502051301 48 0.0 0.0 0.00 0.00 0.00 72
20260502050236 47 0.0 0.0 0.00 0.00 0.00 72
20260502045259 46 0.0 0.0 0.00 0.00 0.00 73
20260502044236 46 0.0 0.0 0.00 0.00 0.00 73
20260502043302 45 0.0 0.0 0.00 0.00 0.00 78
20260502042236 45 0.0 0.0 0.00 0.00 0.00 80